Date Time,Air Temp,Sky Temp,Clarity,Light Level,Rain Sensor,Readings
2010-10-26 00:00:20,18.4,-20.1,38.4,0.2,2.3,112
2010-10-26 00:05:20,18.4,-20.2,38.6,0.2,2.3,111
2010-10-26 00:10:20,18.5,-19.8,38.2,0.2,2.3,112
2010-10-26 00:15:20,18.5,-19.5,38.0,0.3,2.3,112
2010-10-26 00:20:20,18.6,-18.9,37.5,0.3,2.3,111
2010-10-26 00:25:20,18.7,-19.1,37.8,0.3,2.3,112
2010-10-26 00:30:20,18.8,-19.0,37.8,0.3,2.3,112
2010-10-26 00:35:20,18.8,-19.0,37.8,0.4,2.3,111
2010-10-26 00:40:20,18.8,-18.6,37.4,0.4,2.3,112
2010-10-26 00:45:20,18.8,-17.7,36.5,0.4,2.4,112
2010-10-26 00:50:20,18.8,-16.8,35.6,0.4,2.4,111
2010-10-26 00:55:20,18.9,-16.3,35.2,0.4,2.5,112
2010-10-26 01:00:20,19.0,-16.5,35.4,0.5,2.4,111
2010-10-26 01:05:20,19.1,-16.9,36.0,0.5,2.3,112
2010-10-26 01:10:20,19.1,-17.2,36.3,0.5,2.3,111
2010-10-26 01:15:20,19.1,-17.8,37.0,0.5,2.3,112
2010-10-26 01:20:20,19.2,-18.0,37.2,0.5,2.3,111
2010-10-26 01:25:20,19.2,-17.5,36.7,0.5,2.3,112
2010-10-26 01:30:20,19.1,-16.9,36.0,0.5,2.3,111
2010-10-26 01:35:20,19.1,-16.4,35.5,0.6,2.3,112
2010-10-26 01:40:20,19.1,-16.2,35.3,0.6,2.3,111
2010-10-26 01:45:20,19.1,-14.6,33.8,0.6,2.3,112
2010-10-26 01:50:20,19.1,-14.8,33.9,0.6,2.3,111
2010-10-26 01:55:20,19.1,-17.6,36.7,0.6,2.3,112
2010-10-26 02:00:20,19.1,-18.2,37.4,0.6,2.3,112
2010-10-26 02:05:20,19.1,-18.0,37.1,0.6,2.3,111
2010-10-26 02:10:20,19.0,-18.5,37.5,0.6,2.3,111
2010-10-26 02:15:20,19.0,-18.6,37.6,0.6,2.3,112
2010-10-26 02:20:20,19.0,-18.0,37.0,0.6,2.3,111
2010-10-26 02:25:20,19.1,-16.2,35.3,0.7,2.3,111
2010-10-26 02:30:20,19.1,-13.0,32.2,0.6,2.3,112
2010-10-26 02:35:20,19.2,-8.6,27.9,0.7,2.3,112
2010-10-26 02:40:20,19.3,-5.0,24.3,0.7,2.3,111
2010-10-26 02:45:20,19.5,-3.9,23.4,0.6,2.3,112
2010-10-26 02:50:20,19.6,-4.1,23.8,0.6,2.3,112
2010-10-26 02:55:20,19.7,-4.4,24.2,0.6,2.3,112
2010-10-26 03:00:20,19.8,-3.9,23.6,0.6,2.3,112
2010-10-26 03:05:20,19.8,-3.5,23.3,0.5,2.3,111
2010-10-26 03:10:20,19.8,-3.2,23.0,0.5,2.3,112
2010-10-26 03:15:20,19.8,-2.4,22.1,0.5,2.2,112
2010-10-26 03:20:20,19.7,-2.3,22.0,0.5,2.2,111
2010-10-26 03:25:20,19.7,-3.2,22.9,0.6,2.1,112
2010-10-26 03:30:20,19.7,-5.4,25.1,0.7,2.2,112
2010-10-26 03:35:20,19.6,-6.2,25.9,0.8,2.2,111
2010-10-26 03:40:20,19.6,-7.0,26.7,0.8,2.3,112
2010-10-26 03:45:20,19.7,-7.1,26.8,0.8,2.3,112
2010-10-26 03:50:20,19.7,-5.6,25.4,0.7,2.3,111
2010-10-26 03:55:20,19.7,-4.8,24.6,0.6,2.3,112
2010-10-26 04:00:20,19.8,-6.2,26.0,0.7,2.3,112
2010-10-26 04:05:20,19.8,-10.3,30.1,0.8,2.3,111
2010-10-26 04:10:20,19.9,-11.4,31.3,0.8,2.3,112
2010-10-26 04:15:20,19.8,-10.0,29.8,0.8,2.3,111
2010-10-26 04:20:20,19.8,-8.3,28.1,0.7,2.3,112
2010-10-26 04:25:20,19.9,-8.3,28.2,0.7,2.3,112
2010-10-26 04:30:20,19.9,-9.4,29.3,0.7,2.3,112
2010-10-26 04:35:20,19.8,-10.9,30.7,0.8,2.3,112
2010-10-26 04:40:20,19.7,-12.1,31.8,0.7,2.3,111
2010-10-26 04:45:20,19.5,-13.0,32.6,0.8,2.3,112
2010-10-26 04:50:20,19.4,-13.8,33.2,0.8,2.3,112
2010-10-26 04:55:20,19.4,-13.5,32.8,0.8,2.3,111
2010-10-26 05:00:20,19.3,-10.9,30.2,0.8,2.3,112
2010-10-26 05:05:20,19.3,-8.9,28.1,0.7,2.3,111
2010-10-26 05:10:20,19.4,-8.6,27.9,0.8,2.3,112
2010-10-26 05:15:20,19.5,-4.9,24.4,0.7,2.3,112
2010-10-26 05:20:20,19.7,-2.3,22.0,0.6,2.3,111
2010-10-26 05:25:20,20.0,-1.0,21.0,0.5,2.3,112
2010-10-26 05:30:20,19.4,-0.2,19.6,0.5,2.1,112
2010-10-26 05:35:20,17.0,0.3,16.7,0.5,2.3,112
2010-10-26 05:40:20,16.1,0.5,15.7,0.4,2.4,111
2010-10-26 05:45:20,15.9,0.8,15.1,0.4,2.3,112
2010-10-26 05:50:20,15.8,1.0,14.8,0.4,2.3,111
2010-10-26 05:55:20,15.7,1.3,14.4,0.4,2.3,111
2010-10-26 06:00:20,15.8,1.6,14.2,0.4,2.3,110
2010-10-26 06:05:20,15.8,1.6,14.2,0.4,2.3,111
2010-10-26 06:10:20,15.8,1.6,14.2,0.4,2.3,111
2010-10-26 06:15:20,15.8,1.3,14.5,0.4,2.3,111
2010-10-26 06:20:20,15.8,1.0,14.9,0.5,2.3,110
2010-10-26 06:25:20,15.9,1.6,14.3,0.3,2.3,111
2010-10-26 06:30:20,15.9,1.9,14.0,0.3,2.3,111
2010-10-26 06:35:20,15.9,1.8,14.0,0.4,2.3,112
2010-10-26 06:40:20,15.9,1.6,14.3,0.4,2.3,111
2010-10-26 06:45:20,16.0,1.2,14.8,0.5,2.3,110
2010-10-26 06:50:20,16.1,1.5,14.6,0.5,2.3,111
2010-10-26 06:55:20,16.1,1.7,14.5,0.7,2.3,112
2010-10-26 07:00:20,16.2,1.3,14.9,1.2,2.3,111
2010-10-26 07:05:20,16.2,0.8,15.4,2.1,2.3,110
2010-10-26 07:10:20,16.2,1.3,14.9,3.9,2.3,112
2010-10-26 07:15:20,16.3,1.9,14.4,7.0,2.4,111
2010-10-26 07:20:20,16.4,1.6,14.8,12.0,2.5,111
2010-10-26 07:25:20,16.5,1.5,15.0,17.5,2.4,111
2010-10-26 07:30:20,16.5,2.2,14.3,22.4,2.4,111
2010-10-26 07:35:20,16.6,2.6,14.0,25.3,2.3,111
2010-10-26 07:40:20,16.6,2.9,13.8,27.5,2.3,111
2010-10-26 07:45:20,16.7,2.3,14.4,29.3,2.3,112
2010-10-26 07:50:20,16.7,1.2,15.6,30.3,2.3,110
2010-10-26 07:55:20,16.7,1.8,14.9,30.7,2.3,112
2010-10-26 08:00:20,16.8,2.4,14.4,31.2,2.3,110
2010-10-26 08:05:20,16.8,1.9,14.9,31.6,2.3,111
2010-10-26 08:10:20,16.8,2.3,14.6,31.7,2.3,112
2010-10-26 08:15:20,16.8,2.1,14.7,31.7,2.3,111
2010-10-26 08:20:20,16.8,2.5,14.3,31.8,2.5,111
2010-10-26 08:25:20,16.8,2.8,14.0,31.9,3.4,111
2010-10-26 08:30:20,16.8,3.3,13.5,31.8,3.7,112
2010-10-26 08:35:20,16.6,2.7,13.9,31.8,5.7,111
2010-10-26 08:40:20,16.4,3.9,12.5,32.0,5.5,112
2010-10-26 08:45:20,16.3,3.5,12.7,32.1,8.3,111
2010-10-26 08:50:20,16.2,3.2,13.0,32.2,6.6,111
2010-10-26 08:55:20,16.2,3.1,13.1,32.2,4.0,112
2010-10-26 09:00:20,16.2,3.8,12.4,32.3,3.6,111
2010-10-26 09:05:20,16.3,3.2,13.1,32.2,4.0,111
2010-10-26 09:10:20,16.3,3.6,12.7,32.3,3.1,112
2010-10-26 09:15:20,16.3,3.5,12.8,32.3,3.7,111
2010-10-26 09:20:20,16.0,3.5,12.6,32.4,3.2,112
2010-10-26 09:25:20,16.4,3.8,12.6,32.4,2.7,111
2010-10-26 09:30:20,16.5,4.0,12.5,32.4,2.6,112
2010-10-26 09:35:20,16.6,4.1,12.5,32.3,2.5,112
2010-10-26 09:40:20,16.8,4.0,12.8,32.4,2.4,112
2010-10-26 09:45:20,16.8,4.3,12.5,32.4,2.3,111
2010-10-26 09:50:20,16.9,4.3,12.6,32.4,2.3,112
2010-10-26 09:55:20,16.9,4.2,12.8,32.4,2.3,112
2010-10-26 10:00:20,17.0,4.2,12.8,32.4,2.3,111
2010-10-26 10:05:21,17.1,4.3,12.8,32.4,2.3,112
2010-10-26 10:10:21,17.2,4.5,12.7,32.4,2.4,112
2010-10-26 10:15:21,17.3,4.6,12.6,32.4,2.5,111
2010-10-26 10:20:21,17.0,4.5,12.5,32.4,2.4,112
2010-10-26 10:25:21,17.4,4.5,12.9,32.4,2.3,112
2010-10-26 10:30:21,17.5,4.1,13.4,32.4,2.4,111
2010-10-26 10:35:21,17.5,4.2,13.4,32.4,2.3,112
2010-10-26 10:40:21,17.6,4.4,13.2,32.4,2.3,111
2010-10-26 10:45:21,17.7,4.2,13.4,32.4,2.3,112
2010-10-26 10:50:21,17.7,4.4,13.4,32.5,2.7,111
2010-10-26 10:55:21,17.8,4.5,13.3,32.5,2.4,111
2010-10-26 11:00:21,17.8,4.3,13.5,32.4,2.6,112
2010-10-26 11:05:21,17.8,4.1,13.7,32.4,2.7,112
2010-10-26 11:10:21,17.7,3.7,14.0,32.4,3.7,111
2010-10-26 11:15:21,17.5,3.8,13.7,32.4,6.7,112
2010-10-26 11:20:21,17.4,3.0,14.4,32.4,9.4,111
2010-10-26 11:25:21,17.3,3.1,14.2,32.4,6.4,111
2010-10-26 11:30:21,17.2,3.2,14.0,32.4,3.7,111
2010-10-26 11:35:21,17.1,3.5,13.6,32.3,4.1,112
2010-10-26 11:40:21,17.0,3.5,13.5,32.3,4.3,111
2010-10-26 11:45:21,16.9,3.8,13.1,32.3,3.8,111
2010-10-26 11:50:21,16.9,3.3,13.5,32.4,3.4,111
2010-10-26 11:55:21,16.9,3.6,13.3,32.4,2.9,112
2010-10-26 12:00:21,16.9,3.2,13.7,32.4,3.0,111
2010-10-26 12:05:21,16.9,3.5,13.3,32.4,3.7,111
2010-10-26 12:10:21,16.5,2.6,13.9,32.4,4.2,112
2010-10-26 12:15:21,16.7,3.4,13.3,32.4,5.2,111
2010-10-26 12:20:21,16.7,4.5,12.2,32.4,5.0,112
2010-10-26 12:25:21,16.7,4.5,12.2,32.4,6.4,111
2010-10-26 12:30:21,16.8,5.1,11.7,32.3,7.3,112
2010-10-26 12:35:21,16.8,6.0,10.7,32.3,8.6,111
2010-10-26 12:40:21,16.8,8.8,8.0,32.3,13.1,111
2010-10-26 12:45:21,16.8,9.6,7.2,32.3,12.8,112
2010-10-26 12:50:21,16.9,9.3,7.5,32.3,13.7,112
2010-10-26 12:55:21,16.9,9.2,7.7,32.3,11.0,111
2010-10-26 13:00:21,16.8,9.9,7.0,32.2,14.1,111
2010-10-26 13:05:21,16.9,10.1,6.8,32.3,18.9,112
2010-10-26 13:10:21,16.9,9.9,7.0,32.3,9.0,111
2010-10-26 13:15:21,16.9,11.0,5.9,32.2,13.5,112
2010-10-26 13:20:21,17.0,8.7,8.3,32.3,14.0,111
2010-10-26 13:25:21,17.0,8.1,8.9,32.3,12.7,112
2010-10-26 13:30:21,17.0,10.2,6.8,32.2,12.0,111
2010-10-26 13:35:21,17.1,8.9,8.1,32.2,9.8,112
2010-10-26 13:40:21,16.9,6.9,10.1,32.3,9.6,111
2010-10-26 13:45:21,16.9,5.2,11.8,32.3,8.2,112
2010-10-26 13:50:21,17.0,7.9,9.1,32.2,13.7,111
2010-10-26 13:55:21,17.1,8.1,9.0,32.2,13.0,111
2010-10-26 14:00:21,17.0,8.4,8.6,32.2,13.8,112
2010-10-26 14:05:21,17.0,6.3,10.7,32.1,11.9,111
2010-10-26 14:10:21,16.6,6.9,9.7,32.1,10.5,111
2010-10-26 14:15:21,16.9,7.8,9.1,32.1,9.1,112
2010-10-26 14:20:21,16.9,6.1,10.8,32.1,8.9,111
2010-10-26 14:25:21,16.9,5.5,11.4,32.1,8.7,112
2010-10-26 14:30:21,16.9,4.8,12.0,32.1,8.0,111
2010-10-26 14:35:21,16.9,5.0,11.9,32.1,8.2,112
2010-10-26 14:40:21,16.9,5.2,11.7,32.2,7.7,112
2010-10-26 14:45:21,16.9,6.1,10.8,32.2,8.5,111
2010-10-26 14:50:21,16.9,9.2,7.8,32.2,9.1,111
2010-10-26 14:55:21,17.1,9.7,7.4,32.2,15.6,112
2010-10-26 15:00:21,17.3,9.9,7.4,32.2,16.5,111
2010-10-26 15:05:21,17.4,10.2,7.2,32.2,18.2,111
2010-10-26 15:10:21,17.4,10.0,7.4,32.1,19.9,112
2010-10-26 15:15:21,17.5,10.1,7.4,32.1,17.1,111
2010-10-26 15:20:21,17.6,9.5,8.1,32.1,17.9,112
2010-10-26 15:25:21,17.7,9.2,8.5,32.1,20.0,111
2010-10-26 15:30:21,17.7,10.1,7.6,32.1,21.6,111
2010-10-26 15:35:21,17.7,8.9,8.8,32.1,21.6,112
2010-10-26 15:40:21,17.7,8.6,9.1,32.0,13.9,111
2010-10-26 15:45:21,17.8,9.3,8.5,32.0,18.3,112
2010-10-26 15:50:21,17.8,9.2,8.6,32.0,20.4,111
2010-10-26 15:55:21,17.8,9.9,7.9,32.0,19.3,111
2010-10-26 16:00:21,17.9,10.5,7.4,32.0,21.4,112
2010-10-26 16:05:21,18.0,10.5,7.5,31.9,20.2,111
2010-10-26 16:10:21,18.1,10.2,7.9,31.9,17.7,112
2010-10-26 16:15:21,18.1,10.5,7.6,31.8,24.9,111
2010-10-26 16:20:21,18.1,11.2,6.9,31.7,14.4,111
2010-10-26 16:25:21,18.0,10.4,7.6,31.7,11.0,112
2010-10-26 16:30:21,18.0,10.5,7.5,31.6,9.1,111
2010-10-26 16:35:21,17.9,10.6,7.2,31.5,8.2,111
2010-10-26 16:40:21,17.9,10.3,7.6,31.5,9.0,112
2010-10-26 16:45:21,17.9,10.6,7.3,31.5,11.2,111
2010-10-26 16:50:21,17.9,10.1,7.8,31.4,9.4,111
2010-10-26 16:55:21,17.9,9.1,8.8,31.2,6.6,112
2010-10-26 17:00:21,17.9,8.0,9.9,31.0,5.3,111
2010-10-26 17:05:21,17.9,8.0,9.9,30.7,6.7,112
2010-10-26 17:10:21,18.0,9.4,8.5,30.3,9.4,111
2010-10-26 17:15:21,18.1,9.1,8.9,30.1,11.2,112
2010-10-26 17:20:21,18.2,10.2,8.0,30.0,15.1,111
2010-10-26 17:25:21,18.4,11.4,7.0,30.0,22.3,112
2010-10-26 17:30:21,18.5,10.9,7.6,29.5,24.1,111
2010-10-26 17:35:21,18.7,9.8,8.9,29.0,19.8,111
2010-10-26 17:40:21,18.7,9.6,9.1,28.0,23.7,111
2010-10-26 17:45:21,18.6,9.6,8.9,26.3,26.9,112
2010-10-26 17:50:21,18.3,10.8,7.5,24.0,22.1,111
2010-10-26 17:55:21,18.7,10.8,8.0,21.7,13.2,112
2010-10-26 18:00:21,18.7,10.8,8.0,19.8,21.2,111
2010-10-26 18:05:21,18.8,10.0,8.8,15.2,24.8,112
2010-10-26 18:10:21,18.6,10.1,8.6,9.8,25.7,111
2010-10-26 18:15:21,18.7,10.3,8.4,5.9,13.4,111
2010-10-26 18:20:21,18.7,10.4,8.3,3.4,7.4,112
2010-10-26 18:25:21,18.6,9.7,8.9,1.7,9.4,112
2010-10-26 18:30:21,18.7,9.2,9.6,0.7,10.7,111
2010-10-26 18:35:21,18.7,7.3,11.4,0.4,6.7,111
2010-10-26 18:40:21,18.6,7.2,11.4,0.2,4.5,111
2010-10-26 18:45:21,18.6,7.3,11.3,0.0,4.2,112
2010-10-26 18:50:21,18.6,7.7,10.9,0.0,10.0,111
2010-10-26 18:55:21,18.9,7.9,11.0,0.0,9.9,112
2010-10-26 19:00:21,18.9,7.6,11.3,0.0,7.4,111
2010-10-26 19:05:21,18.9,7.9,11.0,0.0,9.0,112
2010-10-26 19:10:21,18.9,7.7,11.3,0.0,8.3,111
2010-10-26 19:15:21,18.9,7.2,11.7,0.0,5.0,112
2010-10-26 19:20:21,18.8,7.3,11.5,0.0,4.6,111
2010-10-26 19:25:21,18.8,7.4,11.5,0.0,3.4,111
2010-10-26 19:30:21,18.8,7.5,11.3,0.0,3.3,112
2010-10-26 19:35:21,18.8,7.6,11.3,0.0,3.4,111
2010-10-26 19:40:21,18.8,7.6,11.2,0.0,3.8,112
2010-10-26 19:45:21,18.9,7.8,11.1,0.0,3.8,111
2010-10-26 19:50:21,18.9,7.6,11.3,0.0,4.5,112
2010-10-26 19:55:21,18.9,7.6,11.4,0.0,5.0,111
2010-10-26 20:00:21,19.0,7.6,11.4,0.0,4.5,111
2010-10-26 20:05:21,18.9,7.8,11.2,0.0,5.0,111
2010-10-26 20:10:21,18.9,7.6,11.3,0.0,4.9,112
2010-10-26 20:15:21,18.9,7.3,11.6,0.0,4.9,112
2010-10-26 20:20:21,18.9,7.5,11.4,0.0,5.0,111
2010-10-26 20:25:21,18.9,7.7,11.3,0.0,5.0,111
2010-10-26 20:30:21,18.9,7.7,11.2,0.0,4.9,112
2010-10-26 20:35:21,18.9,8.1,10.8,0.0,4.9,112
2010-10-26 20:40:21,18.6,8.3,10.3,0.0,16.0,111
2010-10-26 20:45:21,19.2,10.2,9.1,0.0,14.1,112
2010-10-26 20:50:21,19.1,10.3,8.8,0.0,8.6,111
2010-10-26 20:55:21,19.0,10.6,8.4,0.0,8.1,112
2010-10-26 21:00:21,19.0,10.9,8.0,0.0,7.6,111
2010-10-26 21:05:21,18.9,9.5,9.4,0.0,7.5,111
2010-10-26 21:10:21,18.9,7.8,11.1,0.0,7.2,112
2010-10-26 21:15:21,18.9,8.0,10.8,0.0,6.6,111
2010-10-26 21:20:21,18.9,8.4,10.5,0.0,6.5,112
2010-10-26 21:25:21,18.5,8.2,10.3,0.0,6.6,111
2010-10-26 21:30:21,18.9,8.1,10.8,0.0,7.0,112
2010-10-26 21:35:21,18.6,8.3,10.2,0.0,7.5,111
2010-10-26 21:40:21,18.9,7.9,11.0,0.0,8.0,111
2010-10-26 21:45:21,18.9,8.3,10.6,0.0,7.8,112
2010-10-26 21:50:21,18.9,8.2,10.7,0.0,7.7,111
2010-10-26 21:55:21,18.9,8.1,10.9,0.0,7.8,111
2010-10-26 22:00:21,18.9,8.1,10.9,0.0,8.4,112
2010-10-26 22:05:21,18.9,8.0,10.9,0.0,8.8,112
2010-10-26 22:10:21,18.9,7.9,11.0,0.0,9.2,111
2010-10-26 22:15:21,18.9,7.9,11.0,0.0,10.4,112
2010-10-26 22:20:21,18.9,7.8,11.1,0.0,11.8,111
2010-10-26 22:25:21,18.9,7.7,11.2,0.0,12.1,111
2010-10-26 22:30:21,18.9,7.6,11.3,0.0,13.6,112
2010-10-26 22:35:21,18.9,7.9,11.0,0.0,13.3,111
2010-10-26 22:40:21,18.9,8.1,10.7,0.0,12.7,112
2010-10-26 22:45:21,18.9,8.3,10.5,0.0,12.4,111
2010-10-26 22:50:21,18.9,8.1,10.8,0.0,12.5,111
2010-10-26 22:55:21,18.9,8.2,10.7,0.0,12.6,111
2010-10-26 23:00:21,18.9,8.0,11.0,0.0,13.7,111
2010-10-26 23:05:21,18.9,7.8,11.1,0.0,15.5,112
2010-10-26 23:10:21,18.9,8.0,10.8,0.0,15.3,111
2010-10-26 23:15:21,18.9,8.2,10.7,0.0,15.1,111
2010-10-26 23:20:21,18.9,7.9,10.9,0.0,16.5,112
2010-10-26 23:25:21,18.9,7.9,11.0,0.0,16.9,111
2010-10-26 23:30:21,18.9,8.5,10.4,0.0,15.8,112
2010-10-26 23:35:21,18.9,8.5,10.4,0.0,15.4,111
2010-10-26 23:40:21,18.9,8.2,10.7,0.0,15.2,112
2010-10-26 23:45:21,18.9,8.5,10.4,0.0,15.0,111
2010-10-26 23:50:21,19.0,8.4,10.5,0.0,14.8,112
2010-10-26 23:55:21,19.0,8.0,11.0,0.0,15.1,112
